DELTA 1 DEB, 8319

Orbit data source: Space-Track

DELTA 1 DEB, 8319 is space debris in SSO originally from a launch on Sun, 23 Jul 1972 UTC launched from the Air Force Western Test Range (AFWTR). Debris objects in space refer to the collection of defunct objects orbiting the Earth. Examples of debris include non-operational satellites, rocket bodies, and fragments generated from explosions, collisions, or faulty payload assembly.

Loading next visibility...
Identifier
8319, 1972-058EM
Orbit
SSO
Country
Flag of USUS
Related business
Manufacturer
Unknown
Mission
Spacecraft
Bus & Motor
Unknown
Mass
Unknown
Launch date (UTC)
1972-07-23 (54 years ago)
Launch vehicle
Unknown
Launch site
Air Force Western Test Range (AFWTR)
Object type
Payload
Rocket body
Debris
Shape & HBR
Unknown shape, 0.5 m
Radar Cross Section
Medium (>0.1 m² and <1 m²)

Expand to show TLE details & history
Last TLE update: 14 hours ago

TLE from 14 hours ago
0 DELTA 1 DEB
1 08319U 72058EM  26104.40327610  .00000249  00000-0  64397-4 0  9997
2 08319  98.6191 160.4723 0131747 273.9921  84.6223 14.54396285808396
Epoch: 2026-04-14T09:40Z
TLE epoch observation values (Epoch: 2026-04-14T09:40:43.055Z)
Latitude
-0.00006°
Longitude
172.71289°
Altitude
706.757 km
Speed
7.506 km/s
True Right ascension
10h 41m 53s
True Declination
0° 00' 00"
Sunlit
Object was in full shadow at epoch
Visualization orbit readout
Latitude
Unknown
Longitude
Unknown
Altitude
Unknown
Speed
Unknown
Apparent Right ascension
Unknown
Apparent Declination
Unknown
Sunlit
N/A
Visualization observer readout
Local Sidereal Time
05:55:31
Azimuth
Unknown
Elevation
Unknown
Doppler factor
Unknown
Orbital elements
Apogee altitude
801.797 km
Perigee altitude
615.07 km
Semi-major axis
7,086.571 km
Eccentricity
0.01317
Inclination
98.6191°
RAAN
160.4723°
Arg. of periapsis
273.9921°
True anomaly
86.12751°
Mean anomaly
84.6223°
Eccentric anomaly
85.3747°
Mean motion
3.63822 °/min
Orbital period
98.95 mins
BSTAR
0.000064397
Loading maneuver chart data...
Computing Atmospheric mass density...
Loading historical data...
Loading historical data...
Loading historical data...
Loading historical data...
Loading historical data...
Loading historical data...
Loading historical data...

Documentation

Showing up to 5 results
|